Flag for Canada Weather past 2 weeks in Kelowna, British Columbia, Canada

Now
61 °F

Sunny.


Feels Like: 61 °F
Forecast: 35 / 64 °F
Wind: 7 mph from North

Location: Kelowna Airport

Current Time: Apr 18, 2015 at 2:36:22 PM

Latest Report: Apr 18, 2015 at 1:00 PM


Visibility: 9 mi

Pressure: 30.37 "Hg

Humidity: 22%

Dew point: 21 °F

Location of KelownaLocation

Historic Weather in Kelowna — Graph

°F

Kelowna temperature yesterday

Maximum temperature yesterday: 72 °F (at 4:00 PM)
Minimum temperature yesterday: 43 °F (at 11:00 PM)
Average temperature yesterday: 60 °F

Past Weeks' High & Low Weather Summary

 TemperatureHumidityPressure
High72 °F (Apr 17, 4:00 PM)93% (Apr 4, 6:00 AM)30.45 "Hg (Apr 4, 6:00 AM)
Low25 °F (Apr 5, 5:00 AM)12% (Apr 17, 6:00 PM)29.55 "Hg (Apr 11, 3:00 AM)
Average47 °F52%30.00 "Hg
* Reported Apr 3 1:00 PM — Apr 18 1:00 PM, Kelowna, Weather by CustomWeather, © 2015

Note: Actual official high and low records may vary slightly from our data, if they occured in-between our weather recording intervals... More about our weather records

Advertising

Kelowna weather history for previous 24 hours

 ConditionsComfort  
Time TempWeatherWind HumidityBarometerVisibility
1:00 PM
Sat, Apr 18
61 °FSunny.7 mph22%30.37 "Hg9 mi
12:00 PM59 °FSunny.10 mph21%30.38 "Hg9 mi
11:00 AM55 °FSunny.6 mph26%30.40 "Hg9 mi
10:00 AM54 °FSunny.3 mph28%30.41 "Hg9 mi
9:00 AM50 °FSunny.3 mph37%30.42 "Hg9 mi
8:00 AM45 °FSunny.3 mph49%30.41 "Hg9 mi
7:00 AM32 °FSunny.N/A80%30.41 "Hg9 mi
6:00 AM32 °FClear.No wind75%30.39 "Hg9 mi
5:00 AM36 °FClear.2 mph70%30.36 "Hg9 mi
4:00 AM37 °FClear.3 mph70%30.34 "Hg9 mi
3:00 AM39 °FClear.3 mph61%30.32 "Hg9 mi
2:00 AM39 °FClear.3 mph70%30.31 "Hg9 mi
1:00 AM36 °FClear.2 mph75%30.29 "Hg9 mi
12:00 AM43 °FClear.No wind66%30.26 "Hg9 mi
11:00 PM
Fri, Apr 17
43 °FClear.3 mph66%30.22 "Hg9 mi
10:00 PM50 °FClear.3 mph50%30.19 "Hg9 mi
9:00 PM57 °FPassing clouds.5 mph39%30.15 "Hg9 mi
8:00 PM63 °FPartly sunny.20 mph30%30.11 "Hg9 mi
7:56 PM64 °FPartly sunny.26 mph28%30.11 "Hg9 mi
7:00 PM66 °FSunny.13 mph18%30.04 "Hg9 mi
6:00 PM70 °FSunny.13 mph12%30.01 "Hg9 mi
5:00 PM72 °FSunny.10 mph20%30.00 "Hg9 mi
4:00 PM72 °FSunny.13 mph25%30.01 "Hg9 mi
3:00 PM70 °FSunny.8 mph29%30.04 "Hg9 mi
2:00 PM64 °FSunny.6 mph40%30.09 "Hg9 mi
Weather by CustomWeather, © 2015

See weather overviewHow to use our weather pages